| time (UTC) | temp C | wind direction | speed KPH | gust KPH | rain 1hr cm | rain 24hr cm | rain mn cm | humidity % | barometer mb |
| 20260506211507 | 20 | 147 | 3.2 | 16.1 | 0.00 | 0.00 | 0.00 | 71 | 1006.9 |
| 20260506210006 | 20 | 133 | 0.0 | 16.1 | 0.00 | 0.00 | 0.00 | 73 | 1006.7 |
| 20260506204509 | 20 | 138 | 1.6 | 8.0 | 0.00 | 0.00 | 0.00 | 74 | 1006.8 |
| 20260506203004 | 20 | 140 | 0.0 | 12.9 | 0.00 | 0.00 | 0.00 | 75 | 1006.8 |
| 20260506201502 | 20 | 149 | 1.6 | 14.5 | 0.00 | 0.00 | 0.00 | 75 | 1007.0 |
| 20260506200004 | 20 | 139 | 4.8 | 16.1 | 0.00 | 0.00 | 0.00 | 75 | 1007.1 |
| 20260506194601 | 19 | 121 | 3.2 | 19.3 | 0.00 | 0.00 | 0.00 | 75 | 1007.3 |
| 20260506193059 | 19 | 117 | 3.2 | 14.5 | 0.00 | 0.00 | 0.00 | 75 | 1007.6 |
| 20260506191604 | 18 | 140 | 3.2 | 20.9 | 0.00 | 0.00 | 0.00 | 77 | 1007.5 |
| 20260506190158 | 18 | 113 | 4.8 | 24.1 | 0.00 | 0.00 | 0.00 | 78 | 1007.7 |
| 20260506184559 | 19 | 135 | 4.8 | 14.5 | 0.00 | 0.00 | 0.00 | 77 | 1007.7 |
| 20260506183103 | 20 | 142 | 4.8 | 20.9 | 0.00 | 0.00 | 0.00 | 72 | 1007.8 |
| 20260506181604 | 21 | 141 | 3.2 | 14.5 | 0.00 | 0.00 | 0.00 | 68 | 1007.7 |
| 20260506180052 | 21 | 129 | 0.0 | 14.5 | 0.00 | 0.00 | 0.00 | 68 | 1007.9 |
| 20260506174552 | 21 | 146 | 4.8 | 12.9 | 0.00 | 0.00 | 0.00 | 68 | 1008.1 |
| 20260506173116 | 21 | 143 | 0.0 | 14.5 | 0.00 | 0.00 | 0.00 | 69 | 1008.0 |
| 20260506171548 | 21 | 140 | 1.6 | 14.5 | 0.00 | 0.00 | 0.00 | 70 | 1008.3 |
| 20260506170103 | 21 | 142 | 4.8 | 16.1 | 0.00 | 0.00 | 0.00 | 69 | 1008.5 |
| 20260506164546 | 21 | 140 | 1.6 | 17.7 | 0.00 | 0.00 | 0.00 | 69 | 1009.0 |
| 20260506163052 | 21 | 139 | 1.6 | 20.9 | 0.00 | 0.00 | 0.00 | 68 | 1009.4 |
| 20260506161544 | 21 | 146 | 0.0 | 14.5 | 0.00 | 0.00 | 0.00 | 66 | 1009.6 |
| 20260506160044 | 22 | 146 | 3.2 | 16.1 | 0.00 | 0.00 | 0.00 | 60 | 1009.5 |
| 20260506154600 | 22 | 131 | 3.2 | 14.5 | 0.00 | 0.00 | 0.00 | 55 | 1009.4 |
| 20260506153034 | 22 | 136 | 6.4 | 20.9 | 0.00 | 0.00 | 0.00 | 56 | 1009.4 |
| 20260506151531 | 22 | 149 | 4.8 | 14.5 | 0.00 | 0.00 | 0.00 | 56 | 1009.6 |
| 20260506150030 | 22 | 125 | 3.2 | 25.7 | 0.00 | 0.00 | 0.00 | 56 | 1009.7 |
| 20260506144534 | 22 | 140 | 8.0 | 27.4 | 0.00 | 0.00 | 0.00 | 55 | 1009.6 |
| 20260506143028 | 22 | 103 | 4.8 | 16.1 | 0.00 | 0.00 | 0.00 | 56 | 1009.7 |
| 20260506141524 | 22 | 140 | 6.4 | 22.5 | 0.00 | 0.00 | 0.00 | 58 | 1009.6 |
| 20260506140024 | 22 | 151 | 3.2 | 17.7 | 0.00 | 0.00 | 0.00 | 61 | 1009.7 |
| 20260506134522 | 22 | 134 | 6.4 | 29.0 | 0.00 | 0.00 | 0.00 | 60 | 1009.9 |
| 20260506133018 | 21 | 136 | 8.0 | 17.7 | 0.00 | 0.00 | 0.00 | 62 | 1010.0 |
| 20260506131616 | 21 | 111 | 3.2 | 25.7 | 0.00 | 0.00 | 0.00 | 64 | 1010.3 |
| 20260506130011 | 20 | 134 | 8.0 | 22.5 | 0.00 | 0.00 | 0.00 | 67 | 1010.2 |
| 20260506124507 | 18 | 101 | 4.8 | 22.5 | 0.00 | 0.00 | 0.00 | 71 | 1010.2 |
| 20260506123003 | 18 | 134 | 3.2 | 22.5 | 0.00 | 0.00 | 0.00 | 72 | 1010.3 |
| 20260506121503 | 18 | 133 | 4.8 | 12.9 | 0.00 | 0.00 | 0.00 | 74 | 1010.4 |
| 20260506120001 | 17 | 134 | 4.8 | 20.9 | 0.00 | 0.00 | 0.00 | 74 | 1010.3 |
| 20260506114609 | 17 | 138 | 3.2 | 14.5 | 0.00 | 0.00 | 0.00 | 76 | 1010.4 |
| 20260506113056 | 16 | 136 | 4.8 | 17.7 | 0.00 | 0.00 | 0.00 | 77 | 1010.5 |
| 20260506111554 | 16 | 136 | 1.6 | 11.3 | 0.00 | 0.00 | 0.00 | 79 | 1010.6 |
| 20260506110053 | 16 | 141 | 6.4 | 16.1 | 0.00 | 0.00 | 0.00 | 80 | 1010.6 |
| 20260506104611 | 16 | 142 | 1.6 | 14.5 | 0.00 | 0.00 | 0.00 | 82 | 1010.4 |
| 20260506103048 | 15 | 145 | 1.6 | 16.1 | 0.00 | 0.00 | 0.00 | 82 | 1010.5 |
| 20260506101549 | 15 | 141 | 1.6 | 12.9 | 0.00 | 0.00 | 0.00 | 82 | 1010.3 |
| 20260506100046 | 16 | 140 | 3.2 | 17.7 | 0.00 | 0.00 | 0.00 | 82 | 1010.3 |
| 20260506094545 | 16 | 134 | 1.6 | 8.0 | 0.00 | 0.00 | 0.00 | 82 | 1010.3 |
| 20260506093044 | 16 | 138 | 1.6 | 14.5 | 0.00 | 0.00 | 0.00 | 82 | 1010.3 |
| 20260506091542 | 16 | 136 | 3.2 | 12.9 | 0.00 | 0.00 | 0.00 | 82 | 1010.3 |
| 20260506090046 | 16 | 143 | 1.6 | 14.5 | 0.00 | 0.00 | 0.00 | 82 | 1010.4 |
| 20260506084540 | 16 | 142 | 1.6 | 16.1 | 0.00 | 0.00 | 0.00 | 81 | 1010.5 |
| 20260506083043 | 16 | 146 | 0.0 | 12.9 | 0.00 | 0.00 | 0.00 | 81 | 1010.5 |
| 20260506081537 | 16 | 140 | 0.0 | 16.1 | 0.00 | 0.00 | 0.00 | 80 | 1010.6 |
| 20260506073031 | 17 | 141 | 6.4 | 16.1 | 0.00 | 0.00 | 0.00 | 78 | 1010.7 |
| 20260506071528 | 17 | 142 | 3.2 | 17.7 | 0.00 | 0.00 | 0.00 | 77 | 1010.7 |
| 20260506061524 | 17 | 133 | 1.6 | 12.9 | 0.00 | 0.00 | 0.00 | 76 | 1010.6 |
| 20260506044513 | 17 | 99 | 3.2 | 12.9 | 0.00 | 0.00 | 0.00 | 73 | 1011.2 |
| 20260506043014 | 18 | 140 | 1.6 | 12.9 | 0.00 | 0.00 | 0.00 | 72 | 1011.3 |
| 20260506041509 | 18 | 136 | 0.0 | 11.3 | 0.00 | 0.00 | 0.00 | 71 | 1011.2 |
| 20260506040008 | 18 | 138 | 6.4 | 17.7 | 0.00 | 0.00 | 0.00 | 70 | 1011.2 |
| 20260506034507 | 18 | 132 | 3.2 | 16.1 | 0.00 | 0.00 | 0.00 | 69 | 1011.2 |
| 20260506033006 | 18 | 137 | 3.2 | 20.9 | 0.00 | 0.00 | 0.00 | 68 | 1011.2 |
| 20260506031505 | 18 | 140 | 4.8 | 16.1 | 0.00 | 0.00 | 0.00 | 68 | 1011.2 |
| 20260506030005 | 18 | 140 | 4.8 | 25.7 | 0.00 | 0.00 | 0.00 | 68 | 1011.3 |
| 20260506024509 | 19 | 150 | 3.2 | 19.3 | 0.00 | 0.00 | 0.00 | 67 | 1011.3 |
| 20260506023002 | 19 | 146 | 4.8 | 20.9 | 0.00 | 0.00 | 0.00 | 67 | 1011.4 |
| 20260506021504 | 19 | 147 | 3.2 | 20.9 | 0.00 | 0.00 | 0.00 | 67 | 1011.5 |
| 20260506020001 | 19 | 138 | 6.4 | 19.3 | 0.00 | 0.00 | 0.00 | 66 | 1011.5 |
| 20260506014600 | 20 | 136 | 1.6 | 19.3 | 0.00 | 0.00 | 0.00 | 65 | 1011.4 |
| 20260506013059 | 20 | 130 | 6.4 | 19.3 | 0.00 | 0.00 | 0.00 | 63 | 1011.3 |
| 20260506011558 | 20 | 137 | 4.8 | 19.3 | 0.00 | 0.00 | 0.00 | 61 | 1011.2 |
| 20260506004558 | 20 | 130 | 6.4 | 25.7 | 0.00 | 0.00 | 0.00 | 59 | 1010.8 |
| 20260506003107 | 20 | 139 | 8.0 | 25.7 | 0.00 | 0.00 | 0.00 | 58 | 1010.7 |
| 20260506001611 | 21 | 144 | 3.2 | 22.5 | 0.00 | 0.00 | 0.00 | 57 | 1010.7 |
| 20260506000056 | 21 | 121 | 1.6 | 14.5 | 0.00 | 0.00 | 0.00 | 55 | 1010.5 |
| 20260505234611 | 21 | 133 | 4.8 | 20.9 | 0.00 | 0.00 | 0.00 | 54 | 1010.3 |
| 20260505233055 | 22 | 135 | 6.4 | 19.3 | 0.00 | 0.00 | 0.00 | 53 | 1010.3 |
| 20260505231554 | 22 | 132 | 1.6 | 20.9 | 0.00 | 0.00 | 0.00 | 51 | 1009.9 |
| 20260505230053 | 23 | 139 | 6.4 | 22.5 | 0.00 | 0.00 | 0.00 | 50 | 1009.8 |
| 20260505224553 | 23 | 142 | 4.8 | 17.7 | 0.00 | 0.00 | 0.00 | 50 | 1009.6 |
| 20260505223105 | 23 | 130 | 12.9 | 27.4 | 0.00 | 0.00 | 0.00 | 49 | 1009.6 |
| 20260505221551 | 23 | 127 | 4.8 | 22.5 | 0.00 | 0.00 | 0.00 | 48 | 1009.4 |
| 20260505220050 | 24 | 131 | 6.4 | 20.9 | 0.00 | 0.00 | 0.00 | 46 | 1009.2 |
| 20260505214557 | 25 | 141 | 4.8 | 22.5 | 0.00 | 0.00 | 0.00 | 45 | 1009.0 |
| 20260505213053 | 25 | 140 | 11.3 | 24.1 | 0.00 | 0.00 | 0.00 | 45 | 1008.9 |